Regional Weather Roundup
Issued by NWS Little Rock, AR

Home | Current Version | Previous Version | Text Only | Print | Product List | Glossary On
Versions: 1 2 3 4 5 6 7 8 9 10 11 12 13 14 15 16 17 18 19 20 21 22 23 24 25 26 27 28 29 30 31 32
000
ASUS44 KLZK 191505
RWRLZK

WEATHER ROUNDUP FOR ARKANSAS
NATIONAL WEATHER SERVICE LITTLE ROCK AR
1000 AM CDT THU OCT 19 2017

NOTE: "FAIR" INDICATES FEW OR NO CLOUDS BELOW 12,000 FEET WITH NO
SIGNIFICANT WEATHER AND/OR OBSTRUCTIONS TO VISIBILITY.

ARZ001-003-010-029-191600-
NORTHWEST ARKANSAS

CITY           SKY/WX    TMP DP  RH WIND       PRES   REMARKS
FAYETTEVILLE   CLOUDY    59  55  87 CALM      30.23R
FORT SMITH     MOSUNNY   62  55  77 E7        30.23R
HARRISON       SUNNY     61  52  72 E3        30.24R
BENTONVILLE    SUNNY     63  52  67 S7        30.24R
ROGERS         SUNNY     64  54  69 S8        30.23R
SILOAM SPGS    MOSUNNY   63  53  70 S6        30.23R
HIGHFILL       SUNNY     64  54  69 S9        30.22R
SPRINGDALE     SUNNY     63  54  72 S6        30.24R
$$

ARZ004-005-016-191600-
NORTH CENTRAL ARKANSAS

CITY           SKY/WX    TMP DP  RH WIND       PRES   REMARKS
BATESVILLE     SUNNY     65  52  62 VRB3      30.25R
FLIPPIN        SUNNY     59  51  75 CALM      30.24R
MTN HOME       SUNNY     62  54  74 SW3       30.23R
$$

ARZ040-041-191600-
WEST CENTRAL ARKANSAS

CITY           SKY/WX    TMP DP  RH WIND       PRES   REMARKS
MENA           PTSUNNY   63  61  94 CALM      30.24R
$$

ARZ009-017-025-026-028-191600-
NORTHEAST ARKANSAS

CITY           SKY/WX    TMP DP  RH WIND       PRES   REMARKS
JONESBORO      SUNNY     62  52  69 SW3       30.27R
NEWPORT        SUNNY     61  52  72 S7        30.26S
WALNUT RIDGE   SUNNY     62  51  67 S9        30.26
BLYTHEVILLE    SUNNY     64  50  60 SW12      30.28R
NW BLYTHEVILLE SUNNY     66  52  59 S9        30.27R
$$

ARZ022-023-033-042-044-191600-
CENTRAL ARKANSAS

CITY           SKY/WX    TMP DP  RH WIND       PRES   REMARKS
LITTLE ROCK    PTSUNNY   62  54  74 CALM      30.26R
N LITTLE ROCK    N/A     65  54  68 S3        30.26R
JACKSONVILLE   MOSUNNY   61  52  73 CALM      30.24S
SEARCY         MOSUNNY   59  54  83 CALM      30.26S
HOT SPRINGS    SUNNY     65  55  70 CALM      30.24R
RUSSELLVILLE   CLOUDY    63  56  78 CALM      30.23R
CLINTON        FAIR      55  52  88 CALM      30.25F
$$

ARZ036-191600-
EAST ARKANSAS

CITY           SKY/WX    TMP DP  RH WIND       PRES   REMARKS
WEST MEMPHIS   SUNNY     63  51  65 S8        30.27R
$$

ARZ050-053-066-070-073-191600-
SOUTHWEST ARKANSAS

CITY           SKY/WX    TMP DP  RH WIND       PRES   REMARKS
ARKADELPHIA    FAIR      57  53  86 CALM      30.26R
CAMDEN         MOSUNNY   63  52  67 S3        30.24S
TEXARKANA      SUNNY     66  56  70 S5        30.23R
EL DORADO      SUNNY     63  57  81 S5        30.25R
DE QUEEN       MOSUNNY   63  58  83 CALM      30.21R
$$

ARZ056-057-069-191600-
SOUTHEAST ARKANSAS

CITY           SKY/WX    TMP DP  RH WIND       PRES   REMARKS
PINE BLUFF     SUNNY     63  51  65 VRB5      30.26R
STUTTGART      SUNNY     64  51  62 S8        30.26S
MONTICELLO     CLOUDY    62  51  67 SE5       30.26R

$$






USA.gov is the U.S. government's official web portal to all federal, state and local government web resources and services.